Location: Unspecified
(0.0000°N, 0.0000°E)
Time: 17:22:37
(UTC+00:00)

deb Briz - Pass Details

Date: 21 February 2026
Orbit: 1598 x 2046 km, 64.9° (Epoch: 8 March)

Event Time Altitude Azimuth Distance (km) Brightness Sun altitude
Rises 04:44:58 0° 209° (SSW) 5,233 ? -21.8°
Reaches altitude 10° 04:48:21 10° 213° (SSW) 4,177 ? -20.9°
Maximum altitude 04:58:36 61° 290° (WNW) 1,905 ? -18.4°
Drops below altitude 10° 05:08:03 10° 9° (N) 3,860 ? -16.1°
Sets 05:11:04 0° 13° (NNE) 4,816 ? -15.4°
